Showing default

SHIYAN 30-04, 68140

Orbit data source: Space-Track

SHIYAN 30-04, 68140 is a payload satellite owned by SAST (CN) in LEO that was launched on Thu, 12 Mar 2026 UTC via a CHANG ZHENG 2D launch vehicle from the Xichang Space Center, China (XSC). Payload-class satellites include a variety of spacecraft equipped with specific instruments for various scientific and technological missions. These include communications satellites like Starlink; space stations such as the ISS; scientific satellites like the Hubble; Earth observation satellites from companies like Planet Labs, Umbra, and HawkEye 360; GPS; miniature CubeSats for education and research; and military/defense satellites.

Loading next visibility...
Identifier
68140, 2026-048B
Orbit
LEO
Country
Flag of CNCN / PRC
Related business
Manufacturer
SAST
Mission
Operational spacecraft
Bus & Motor
SY30, Unknown motor
Mass
500 kg wet, ~500 kg dry
Launch date (UTC)
2026-03-12 (3 months ago)
Launch vehicle
CHANG ZHENG 2D
Launch site
Xichang Space Center, China (XSC)
Object type
Payload
Rocket body
Debris
Shape & HBR
Unknown shape, 1.8 m
Radar Cross Section
Large (>1 m²)

Expand to show TLE details & history
Last TLE update: 10 hours ago

TLE from 10 hours ago
0 SHIYAN 30-04
1 68140U 26048B   26171.44034000  .00001208  00000-0  12011-3 0  9990
2 68140  34.9912 248.3528 0002934  18.3456 341.7354 14.91831582 14853
Epoch: 2026-06-20T10:34Z
TLE epoch observation values (Epoch: 2026-06-20T10:34:05.376Z)
Latitude
-0.00001°
Longitude
-178.82455°
Altitude
589.204 km
Speed
7.569 km/s
True Right ascension
16h 33m 24s
True Declination
0° 00' 00"
Sunlit
Object was in full shadow at epoch
Visualization orbit readout
Latitude
Unknown
Longitude
Unknown
Altitude
Unknown
Speed
Unknown
Apparent Right ascension
Unknown
Apparent Declination
Unknown
Sunlit
N/A
Visualization observer readout
Local Sidereal Time
07:21:09
Azimuth
Unknown
Elevation
Unknown
Doppler factor
Unknown
Orbital elements
Apogee altitude
597.478 km
Perigee altitude
593.386 km
Semi-major axis
6,973.569 km
Eccentricity
0.00029
Inclination
34.9912°
RAAN
248.3528°
Arg. of periapsis
18.3456°
True anomaly
341.72486°
Mean anomaly
341.7354°
Eccentric anomaly
341.73013°
Mean motion
3.72701 °/min
Orbital period
96.59 mins
BSTAR
0.00012011
Loading maneuver chart data...
Computing Atmospheric mass density...
Loading historical data...
Loading historical data...
Loading historical data...
Loading historical data...
Loading historical data...
Loading historical data...
Loading historical data...
Other satellites on launch #48 in the year 2026 (2026-03-12 UTC)

Documentation

Showing up to 5 results
|